This is the latest recevied weather packets stored in our database for station/object 4S6DRJ-13. If no packets are shown the sender has not sent any weather packets the latest 1 day(s).
| Time | Temp. | Humidity | Pressure | Rain* | Wind** | Luminosity | Snow |
|---|---|---|---|---|---|---|---|
| 1778098141 | 25.56° C | 94% | 1004.7 hPa | 4.06 mm | 0 m/s | 0 W/m² | - |
| 1778098080 | 25.56° C | 94% | 1004.8 hPa | 4.06 mm | 0.45 m/s, 320° | 0 W/m² | - |
| 1778097836 | 25.56° C | 94% | 1004.9 hPa | 3.56 mm | 0.89 m/s, 317° | 0 W/m² | - |
| 1778097775 | 25.56° C | 94% | 1004.9 hPa | 3.56 mm | 0.89 m/s, 312° | 0 W/m² | - |
| 1778097714 | 25.56° C | 94% | 1004.8 hPa | 3.3 mm | 0.45 m/s, 312° | 0 W/m² | - |
| 1778097653 | 25.56° C | 94% | 1004.8 hPa | 3.3 mm | 0.89 m/s, 306° | 0 W/m² | - |
| 1778097531 | 25.56° C | 94% | 1004.9 hPa | 3.3 mm | 0 m/s | 0 W/m² | - |
| 1778097470 | 25.56° C | 94% | 1004.9 hPa | 3.3 mm | 0.45 m/s, 290° | 0 W/m² | - |
| 1778097409 | 25.56° C | 94% | 1005 hPa | 3.3 mm | 0 m/s | 0 W/m² | - |
| 1778097287 | 25.56° C | 94% | 1005 hPa | 3.3 mm | 0.45 m/s, 295° | 0 W/m² | - |
| 1778096982 | 25.56° C | 94% | 1005.1 hPa | 3.05 mm | 0 m/s | 0 W/m² | - |
| 1778096677 | 25.56° C | 94% | 1005 hPa | 2.79 mm | 0 m/s | 0 W/m² | - |
| 1778096616 | 25.56° C | 94% | 1005 hPa | 2.79 mm | 0 m/s | 0 W/m² | - |
| 1778096433 | 26.11° C | 94% | 1005 hPa | 2.54 mm | 0 m/s | 0 W/m² | - |
| 1778096311 | 26.11° C | 94% | 1004.9 hPa | 2.29 mm | 0 m/s | 0 W/m² | - |
| 1778096250 | 26.11° C | 94% | 1005 hPa | 2.29 mm | 0 m/s | 0 W/m² | - |
| 1778096189 | 26.11° C | 94% | 1004.9 hPa | 2.29 mm | 0 m/s | 0 W/m² | - |
| 1778095885 | 25.56° C | 94% | 1004.7 hPa | 2.03 mm | 0 m/s | 0 W/m² | - |
| 1778095701 | 26.11° C | 94% | 1004.9 hPa | 2.29 mm | 0.45 m/s, 314° | 0 W/m² | - |
| 1778095580 | 26.11° C | 94% | 1004.9 hPa | 2.03 mm | 0.45 m/s, 321° | 0 W/m² | - |
| 1778095397 | 25.56° C | 94% | 1005.2 hPa | 2.03 mm | 0 m/s | 0 W/m² | - |
| 1778095092 | 26.11° C | 94% | 1005.2 hPa | 2.03 mm | 0 m/s | 0 W/m² | - |
| 1778094848 | 26.11° C | 93% | 1005 hPa | 2.03 mm | 0 m/s | 0 W/m² | - |
| 1778093933 | 25.56° C | 94% | 1005.2 hPa | 1.52 mm | 0 m/s | 0 W/m² | - |
| 1778093201 | 25.56° C | 93% | 1004.8 hPa | 1.02 mm | 0 m/s | 0 W/m² | - |
* Rain latest hour (hover to see other rain measurements)
** Current wind speed in m/s (hover to see current wind gust speed)